,,,PA_Meas_PMT16A,,PR_Meas_QMR101_102,,RH_Meas_QMH101,,SR_Meas_QMS101,,TA_Meas_QMH101,,GenWind,,GenWind,
date,time,status,PA,status,PR,status,RH,status,SR,status,TA,status,DirAvg,status,SpdAvg,
2009-08-23, 00:00:05,VALID,1004.49,VALID,0,VALID,88.3806,VALID,0,VALID,24.7353,VALID,352,VALID,0.913281,
2009-08-23, 00:01:05,VALID,1004.48,VALID,0,VALID,88.3501,VALID,0,VALID,24.6945,VALID,305,VALID,1.07656,
2009-08-23, 00:02:05,VALID,1004.44,VALID,0,VALID,88.5484,VALID,0,VALID,24.7159,VALID,254,VALID,0.599219,
2009-08-23, 00:03:05,VALID,1004.43,VALID,0,VALID,88.6323,VALID,0,VALID,24.6964,VALID,357,VALID,0.523438,
2009-08-23, 00:04:04,VALID,1004.43,VALID,0,VALID,88.5637,VALID,0,VALID,24.6556,VALID,345,VALID,1.44297,
2009-08-23, 00:05:04,VALID,1004.39,VALID,0,VALID,88.6552,VALID,0,VALID,24.6574,VALID,334,VALID,0.6625,
2009-08-23, 00:06:04,VALID,1004.4,VALID,0,VALID,88.6705,VALID,0,VALID,24.6593,VALID,334,VALID,0.76875,
2009-08-23, 00:07:04,VALID,1004.42,VALID,0,VALID,88.762,VALID,0,VALID,24.6185,VALID,351,VALID,1.27266,
2009-08-23, 00:08:04,VALID,1004.41,VALID,0,VALID,88.7849,VALID,0,VALID,24.6398,VALID,351,VALID,1.16484,
2009-08-23, 00:09:04,VALID,1004.41,VALID,0,VALID,88.5713,VALID,0,VALID,24.599,VALID,345,VALID,1.35156,
2009-08-23, 00:10:04,VALID,1004.39,VALID,0,VALID,88.64,VALID,0,VALID,24.5777,VALID,317,VALID,0.970703,
2009-08-23, 00:11:04,VALID,1004.37,VALID,0,VALID,88.5484,VALID,0,VALID,24.5601,VALID,339,VALID,0.919141,
2009-08-23, 00:12:04,VALID,1004.33,VALID,0,VALID,88.64,VALID,0,VALID,24.5796,VALID,279,VALID,1.26406,
2009-08-23, 00:13:04,VALID,1004.34,VALID,0,VALID,88.64,VALID,0,VALID,24.5796,VALID,299,VALID,1.18711,
2009-08-23, 00:14:04,VALID,1004.32,VALID,0,VALID,88.7162,VALID,0,VALID,24.5796,VALID,291,VALID,0.5,
2009-08-23, 00:15:04,VALID,1004.31,VALID,0,VALID,88.7162,VALID,0,VALID,24.5601,VALID,291,VALID,0.858984,
2009-08-23, 00:16:04,VALID,1004.28,VALID,0,VALID,88.6323,VALID,0,VALID,24.5601,VALID,300,VALID,1.44844,
2009-08-23, 00:17:04,VALID,1004.25,VALID,0,VALID,88.7086,VALID,0,VALID,24.5406,VALID,288,VALID,1.42305,
2009-08-23, 00:18:04,VALID,1004.26,VALID,0,VALID,88.7239,VALID,0,VALID,24.5212,VALID,295,VALID,0.876562,
2009-08-23, 00:19:04,VALID,1004.25,VALID,0,VALID,88.7468,VALID,0,VALID,24.5017,VALID,288,VALID,1.06211,
2009-08-23, 00:20:04,VALID,1004.25,VALID,0,VALID,88.762,VALID,0,VALID,24.5035,VALID,288,VALID,0.805078,
2009-08-23, 00:21:04,VALID,1004.27,VALID,0,VALID,88.9222,VALID,0,VALID,24.4628,VALID,274,VALID,0.360547,
2009-08-23, 00:22:04,VALID,1004.28,VALID,0,VALID,88.968,VALID,0,VALID,24.4433,VALID,302,VALID,0.607813,
2009-08-23, 00:23:04,VALID,1004.26,VALID,0,VALID,88.9833,VALID,0,VALID,24.4646,VALID,350,VALID,1.09258,
2009-08-23, 00:24:04,VALID,1004.27,VALID,0,VALID,89.029,VALID,0,VALID,24.3849,VALID,358,VALID,1.0625,
2009-08-23, 00:25:04,VALID,1004.22,VALID,0,VALID,89.2808,VALID,0,VALID,24.3246,VALID,340,VALID,1.17852,
2009-08-23, 00:26:04,VALID,1004.25,VALID,0,VALID,89.441,VALID,0,VALID,24.3265,VALID,6,VALID,0.855859,
2009-08-23, 00:27:04,VALID,1004.26,VALID,0,VALID,89.6165,VALID,0,VALID,24.2875,VALID,5,VALID,0.815625,
2009-08-23, 00:28:04,VALID,1004.26,VALID,0,VALID,89.647,VALID,0,VALID,24.2699,VALID,353,VALID,1.00508,
2009-08-23, 00:29:04,VALID,1004.22,VALID,0,VALID,89.7385,VALID,0,VALID,24.2291,VALID,347,VALID,0.994922,
2009-08-23, 00:30:04,VALID,1004.23,VALID,0,VALID,89.7767,VALID,0,VALID,24.2097,VALID,347,VALID,0.767969,
2009-08-23, 00:31:04,VALID,1004.21,VALID,0,VALID,89.9598,VALID,0,VALID,24.2115,VALID,284,VALID,0.0527344,
2009-08-23, 00:32:04,VALID,1004.16,VALID,0,VALID,90.1047,VALID,0,VALID,24.192,VALID,289,VALID,0.289844,
2009-08-23, 00:33:04,VALID,1004.16,VALID,0,VALID,90.0589,VALID,0,VALID,24.1513,VALID,356,VALID,0.236328,
2009-08-23, 00:34:04,VALID,1004.12,VALID,0,VALID,89.9216,VALID,0,VALID,24.13,VALID,296,VALID,0.573047,
2009-08-23, 00:35:04,VALID,1004.11,VALID,0,VALID,89.8606,VALID,0,VALID,24.13,VALID,321,VALID,0.677734,
2009-08-23, 00:36:04,VALID,1004.09,VALID,0,VALID,89.7156,VALID,0,VALID,24.1707,VALID,340,VALID,1.09531,
2009-08-23, 00:37:04,VALID,1004.06,VALID,0,VALID,89.3647,VALID,0,VALID,24.1707,VALID,341,VALID,1.09805,
2009-08-23, 00:38:04,VALID,1004.04,VALID,0,VALID,89.2503,VALID,0,VALID,24.1902,VALID,318,VALID,1.16602,
2009-08-23, 00:39:04,VALID,1004.06,VALID,0,VALID,89.1664,VALID,0,VALID,24.2097,VALID,356,VALID,1.08945,
2009-08-23, 00:40:04,VALID,1004.03,VALID,0,VALID,89.0367,VALID,0,VALID,24.2291,VALID,333,VALID,0.971094,
2009-08-23, 00:41:04,VALID,1003.97,VALID,0,VALID,88.9604,VALID,0,VALID,24.2486,VALID,25,VALID,0.827734,
2009-08-23, 00:42:04,VALID,1003.96,VALID,0,VALID,88.9604,VALID,0,VALID,24.2291,VALID,346,VALID,0.808594,
2009-08-23, 00:43:04,VALID,1003.9,VALID,0,VALID,89.0061,VALID,0.100563,VALID,24.2273,VALID,323,VALID,0.628906,
2009-08-23, 00:44:04,VALID,1003.89,VALID,0,VALID,88.9527,VALID,0.100563,VALID,24.2078,VALID,340,VALID,0.701172,
2009-08-23, 00:45:04,VALID,1003.88,VALID,0,VALID,88.9833,VALID,0,VALID,24.1884,VALID,344,VALID,1.05781,
2009-08-23, 00:46:04,VALID,1003.87,VALID,0,VALID,89.0824,VALID,0,VALID,24.2097,VALID,349,VALID,0.841016,
2009-08-23, 00:47:04,VALID,1003.87,VALID,0,VALID,89.0672,VALID,0.100563,VALID,24.1689,VALID,288,VALID,0.857422,
2009-08-23, 00:48:04,VALID,1003.87,VALID,0,VALID,89.113,VALID,0.100563,VALID,24.1476,VALID,358,VALID,0.771875,
2009-08-23, 00:49:04,VALID,1003.85,VALID,0,VALID,89.0214,VALID,0,VALID,24.1707,VALID,343,VALID,1.31992,
2009-08-23, 00:50:04,VALID,1003.83,VALID,0,VALID,89.0214,VALID,0.100563,VALID,24.1476,VALID,338,VALID,0.805469,
2009-08-23, 00:51:04,VALID,1003.82,VALID,0,VALID,89.0824,VALID,0.100563,VALID,24.1689,VALID,7,VALID,0.864844,
2009-08-23, 00:52:04,VALID,1003.77,VALID,0,VALID,89.113,VALID,0.100563,VALID,24.1689,VALID,333,VALID,0.919141,
2009-08-23, 00:53:04,VALID,1003.76,VALID,0,VALID,89.1435,VALID,0.100563,VALID,24.1494,VALID,349,VALID,1.43281,
2009-08-23, 00:54:04,VALID,1003.72,VALID,0,VALID,89.113,VALID,0.100563,VALID,24.1494,VALID,345,VALID,1.43516,
2009-08-23, 00:55:04,VALID,1003.7,VALID,0,VALID,89.174,VALID,0.100563,VALID,24.1476,VALID,345,VALID,1.76758,
2009-08-23, 00:56:04,VALID,1003.69,VALID,0,VALID,89.1969,VALID,0.100563,VALID,24.1281,VALID,350,VALID,1.39844,
2009-08-23, 00:57:04,VALID,1003.69,VALID,0,VALID,89.2732,VALID,0.100563,VALID,24.1494,VALID,356,VALID,0.825391,
2009-08-23, 00:58:04,VALID,1003.68,VALID,0,VALID,89.2655,VALID,0,VALID,24.1531,VALID,2,VALID,0.985937,
2009-08-23, 00:59:04,VALID,1003.66,VALID,0,VALID,89.3037,VALID,0,VALID,24.1318,VALID,352,VALID,1.07617,
2009-08-23, 01:00:04,VALID,1003.65,VALID,0,VALID,89.4105,VALID,0,VALID,24.1123,VALID,306,VALID,0.749219,
2009-08-23, 01:01:04,VALID,1003.61,VALID,0,VALID,89.4486,VALID,0,VALID,24.091,VALID,351,VALID,0.928125,
2009-08-23, 01:02:04,VALID,1003.6,VALID,0,VALID,89.4486,VALID,0,VALID,24.1123,VALID,339,VALID,0.962109,
2009-08-23, 01:03:04,VALID,1003.58,VALID,0,VALID,89.4028,VALID,0,VALID,24.0929,VALID,339,VALID,1.3875,
2009-08-23, 01:04:04,VALID,1003.57,VALID,0,VALID,89.3113,VALID,0,VALID,24.1123,VALID,352,VALID,1.0793,
2009-08-23, 01:05:04,VALID,1003.57,VALID,0,VALID,89.2198,VALID,0,VALID,24.1318,VALID,7,VALID,0.974219,
2009-08-23, 01:06:04,VALID,1003.57,VALID,0,VALID,89.0672,VALID,0,VALID,24.1513,VALID,348,VALID,0.89375,
2009-08-23, 01:07:04,VALID,1003.59,VALID,0,VALID,88.8154,VALID,0,VALID,24.1513,VALID,347,VALID,0.888672,
2009-08-23, 01:08:04,VALID,1003.56,VALID,0,VALID,88.6018,VALID,0,VALID,24.1707,VALID,335,VALID,1.0875,
2009-08-23, 01:09:04,VALID,1003.56,VALID,0,VALID,88.4035,VALID,0,VALID,24.1902,VALID,340,VALID,1.72734,
2009-08-23, 01:10:04,VALID,1003.57,VALID,0,VALID,88.3424,VALID,0,VALID,24.2078,VALID,345,VALID,1.05508,
2009-08-23, 01:11:04,VALID,1003.53,VALID,0,VALID,88.2814,VALID,0,VALID,24.2291,VALID,273,VALID,0.908203,
2009-08-23, 01:12:04,VALID,1003.54,VALID,0,VALID,88.1365,VALID,0,VALID,24.2486,VALID,310,VALID,0.668359,
2009-08-23, 01:13:04,VALID,1003.5,VALID,0,VALID,88.1746,VALID,0,VALID,24.2681,VALID,284,VALID,1.21836,
2009-08-23, 01:14:04,VALID,1003.44,VALID,0,VALID,88.0602,VALID,0,VALID,24.2681,VALID,237,VALID,0.654297,
2009-08-23, 01:15:04,VALID,1003.46,VALID,0,VALID,88.0602,VALID,0,VALID,24.2468,VALID,296,VALID,1.18359,
2009-08-23, 01:16:04,VALID,1003.48,VALID,0,VALID,87.9534,VALID,0,VALID,24.2875,VALID,327,VALID,0.726953,
2009-08-23, 01:17:04,VALID,1003.48,VALID,0,VALID,87.9991,VALID,0,VALID,24.2681,VALID,291,VALID,0.779297,
2009-08-23, 01:18:04,VALID,1003.51,VALID,0,VALID,88.1288,VALID,0,VALID,24.2681,VALID,298,VALID,0.541797,
2009-08-23, 01:19:04,VALID,1003.5,VALID,0,VALID,88.3577,VALID,0,VALID,24.2681,VALID,305,VALID,0.485547,
2009-08-23, 01:20:04,VALID,1003.48,VALID,0,VALID,88.3577,VALID,0,VALID,24.2486,VALID,1,VALID,0.421094,
2009-08-23, 01:21:04,VALID,1003.52,VALID,0,VALID,88.3958,VALID,0,VALID,24.1884,VALID,310,VALID,0.550781,
2009-08-23, 01:22:04,VALID,1003.48,VALID,0,VALID,88.5179,VALID,0,VALID,24.2097,VALID,345,VALID,0.508984,
2009-08-23, 01:23:04,VALID,1003.48,VALID,0,VALID,88.3729,VALID,0,VALID,24.1902,VALID,312,VALID,0.550781,
2009-08-23, 01:24:04,VALID,1003.48,VALID,0,VALID,88.4569,VALID,0,VALID,24.1494,VALID,336,VALID,0.306641,
2009-08-23, 01:25:04,VALID,1003.46,VALID,0,VALID,88.5179,VALID,0,VALID,24.1707,VALID,329,VALID,0.45,
2009-08-23, 01:26:04,VALID,1003.49,VALID,0,VALID,88.5942,VALID,0,VALID,24.13,VALID,327,VALID,0.121875,
2009-08-23, 01:27:04,VALID,1003.48,VALID,0,VALID,88.7773,VALID,0,VALID,24.1105,VALID,327,VALID,0,
2009-08-23, 01:28:04,VALID,1003.46,VALID,0,VALID,88.8688,VALID,0,VALID,24.1105,VALID,289,VALID,0.739062,
2009-08-23, 01:29:04,VALID,1003.43,VALID,0,VALID,88.9909,VALID,0,VALID,24.1513,VALID,287,VALID,0.919141,
2009-08-23, 01:30:04,VALID,1003.44,VALID,0,VALID,88.8002,VALID,0,VALID,24.1318,VALID,301,VALID,1.29023,
2009-08-23, 01:31:04,VALID,1003.42,VALID,0,VALID,88.8612,VALID,0,VALID,24.1513,VALID,302,VALID,1.03359,
2009-08-23, 01:32:04,VALID,1003.38,VALID,0,VALID,88.4645,VALID,0,VALID,24.1513,VALID,303,VALID,1.0875,
2009-08-23, 01:33:04,VALID,1003.37,VALID,0,VALID,88.434,VALID,0,VALID,24.1707,VALID,285,VALID,0.857422,
2009-08-23, 01:34:04,VALID,1003.38,VALID,0,VALID,88.4645,VALID,0,VALID,24.1707,VALID,288,VALID,0.486328,
2009-08-23, 01:35:04,VALID,1003.34,VALID,0,VALID,88.2204,VALID,0,VALID,24.13,VALID,324,VALID,0.4375,
2009-08-23, 01:36:04,VALID,1003.33,VALID,0,VALID,88.1822,VALID,0,VALID,24.13,VALID,337,VALID,0.193359,
2009-08-23, 01:37:04,VALID,1003.29,VALID,0,VALID,87.8847,VALID,0,VALID,24.1707,VALID,5,VALID,0.690625,
2009-08-23, 01:38:04,VALID,1003.27,VALID,0,VALID,87.7321,VALID,0,VALID,24.1707,VALID,343,VALID,0.285547,
2009-08-23, 01:39:04,VALID,1003.27,VALID,0,VALID,87.4956,VALID,0,VALID,24.13,VALID,345,VALID,0.385938,
2009-08-23, 01:40:04,VALID,1003.29,VALID,0,VALID,87.5033,VALID,0,VALID,24.1902,VALID,262,VALID,0.24375,
2009-08-23, 01:41:04,VALID,1003.27,VALID,0,VALID,87.1447,VALID,0,VALID,24.1902,VALID,27,VALID,0.776953,
2009-08-23, 01:42:04,VALID,1003.27,VALID,0,VALID,87.015,VALID,0,VALID,24.2097,VALID,6,VALID,0.257422,
2009-08-23, 01:43:04,VALID,1003.29,VALID,0,VALID,86.9387,VALID,0,VALID,24.1884,VALID,5,VALID,0.326953,
2009-08-23, 01:44:04,VALID,1003.28,VALID,0,VALID,87.0913,VALID,0,VALID,24.2078,VALID,5,VALID,0.442187,
2009-08-23, 01:45:04,VALID,1003.3,VALID,0,VALID,87.1218,VALID,0,VALID,24.2097,VALID,14,VALID,0.216797,
2009-08-23, 01:46:04,VALID,1003.28,VALID,0,VALID,87.0226,VALID,0,VALID,24.1689,VALID,54,VALID,0.349609,
2009-08-23, 01:47:04,VALID,1003.29,VALID,0,VALID,87.3736,VALID,0,VALID,24.1902,VALID,54,VALID,0.225,
2009-08-23, 01:48:04,VALID,1003.28,VALID,0,VALID,87.6863,VALID,0,VALID,24.1689,VALID,54,VALID,0.0367187,
2009-08-23, 01:49:04,VALID,1003.25,VALID,0,VALID,87.9991,VALID,0,VALID,24.1707,VALID,55,VALID,0.437109,
2009-08-23, 01:50:04,VALID,1003.28,VALID,0,VALID,87.7779,VALID,0,VALID,24.1513,VALID,155,VALID,0.598828,
2009-08-23, 01:51:04,VALID,1003.25,VALID,0,VALID,87.5948,VALID,0,VALID,24.1513,VALID,158,VALID,0.7375,
2009-08-23, 01:52:04,VALID,1003.23,VALID,0,VALID,87.9762,VALID,0,VALID,24.1318,VALID,165,VALID,0.320703,
2009-08-23, 01:53:04,VALID,1003.23,VALID,0,VALID,87.9152,VALID,0,VALID,24.1318,VALID,169,VALID,0.4875,
2009-08-23, 01:54:04,VALID,1003.2,VALID,0,VALID,88.0373,VALID,0,VALID,24.0929,VALID,172,VALID,0.458984,
2009-08-23, 01:55:04,VALID,1003.2,VALID,0,VALID,87.755,VALID,0,VALID,24.0734,VALID,172,VALID,0.378125,
2009-08-23, 01:56:04,VALID,1003.16,VALID,0,VALID,87.9991,VALID,0,VALID,24.0734,VALID,172,VALID,0.460156,
2009-08-23, 01:57:04,VALID,1003.15,VALID,0,VALID,88.6094,VALID,0,VALID,24.0539,VALID,172,VALID,0.272656,
2009-08-23, 01:58:04,VALID,1003.14,VALID,0,VALID,89.1511,VALID,0,VALID,24.0326,VALID,172,VALID,0.0363281,
2009-08-23, 01:59:04,VALID,1003.13,VALID,0,VALID,89.2274,VALID,0,VALID,24.015,VALID,172,VALID,0.00195313,
2009-08-23, 02:00:04,VALID,1003.12,VALID,0,VALID,89.3723,VALID,0,VALID,23.9742,VALID,172,VALID,0.0683594,
2009-08-23, 02:01:04,VALID,1003.13,VALID,0,VALID,89.5402,VALID,0,VALID,23.9761,VALID,172,VALID,0,
2009-08-23, 02:02:04,VALID,1003.08,VALID,0,VALID,89.769,VALID,0,VALID,23.9761,VALID,172,VALID,0,
2009-08-23, 02:03:04,VALID,1003.11,VALID,0,VALID,89.7233,VALID,0,VALID,23.9566,VALID,172,VALID,0,
2009-08-23, 02:04:04,VALID,1003.1,VALID,0,VALID,89.1206,VALID,0,VALID,23.8964,VALID,172,VALID,0.233203,
2009-08-23, 02:05:04,VALID,1003.07,VALID,0,VALID,89.0748,VALID,0,VALID,23.9177,VALID,172,VALID,0.132422,
2009-08-23, 02:06:04,VALID,1003.07,VALID,0,VALID,89.2274,VALID,0,VALID,23.9371,VALID,172,VALID,0.503906,
2009-08-23, 02:07:04,VALID,1003.05,VALID,0,VALID,89.4028,VALID,0,VALID,23.9353,VALID,172,VALID,0.184375,
2009-08-23, 02:08:04,VALID,1003.05,VALID,0,VALID,89.4715,VALID,0,VALID,23.9566,VALID,172,VALID,0,
2009-08-23, 02:09:04,VALID,1003.02,VALID,0,VALID,89.5631,VALID,0,VALID,23.9353,VALID,172,VALID,0,
2009-08-23, 02:10:04,VALID,1003.03,VALID,0,VALID,89.9521,VALID,0,VALID,23.9159,VALID,172,VALID,0.261328,
2009-08-23, 02:11:04,VALID,1003.01,VALID,0,VALID,90.181,VALID,0,VALID,23.8769,VALID,171,VALID,0.245703,
2009-08-23, 02:12:04,VALID,1002.99,VALID,0,VALID,90.2649,VALID,0,VALID,23.8185,VALID,171,VALID,0.2125,
2009-08-23, 02:13:04,VALID,1002.99,VALID,0,VALID,90.4709,VALID,0,VALID,23.7814,VALID,171,VALID,0,
2009-08-23, 02:14:04,VALID,1002.98,VALID,0,VALID,90.5777,VALID,0,VALID,23.7425,VALID,171,VALID,0,
2009-08-23, 02:15:04,VALID,1002.99,VALID,0,VALID,90.7226,VALID,0,VALID,23.7017,VALID,171,VALID,0,
2009-08-23, 02:16:04,VALID,1002.97,VALID,0,VALID,90.9057,VALID,0,VALID,23.7035,VALID,171,VALID,0,
2009-08-23, 02:17:04,VALID,1002.95,VALID,0,VALID,91.0125,VALID,0,VALID,23.6434,VALID,171,VALID,0,
2009-08-23, 02:18:04,VALID,1002.92,VALID,0,VALID,91.1422,VALID,0,VALID,23.6452,VALID,171,VALID,0,
2009-08-23, 02:19:04,VALID,1002.94,VALID,0,VALID,91.4474,VALID,0,VALID,23.6239,VALID,131,VALID,0.100391,
2009-08-23, 02:20:04,VALID,1002.91,VALID,0,VALID,91.6229,VALID,0,VALID,23.5868,VALID,79,VALID,0.570313,
2009-08-23, 02:21:04,VALID,1002.92,VALID,0,VALID,91.7983,VALID,0,VALID,23.5266,VALID,48,VALID,0.527734,
2009-08-23, 02:22:04,VALID,1002.9,VALID,0,VALID,91.9814,VALID,0,VALID,23.4877,VALID,43,VALID,0.608984,
2009-08-23, 02:23:04,VALID,1002.87,VALID,0,VALID,91.9738,VALID,0,VALID,23.4505,VALID,43,VALID,0.560547,
2009-08-23, 02:24:04,VALID,1002.83,VALID,0,VALID,91.9204,VALID,0,VALID,23.4293,VALID,43,VALID,0.205469,
2009-08-23, 02:25:04,VALID,1002.83,VALID,0,VALID,91.9204,VALID,0,VALID,23.4098,VALID,43,VALID,0.176172,
2009-08-23, 02:26:04,VALID,1002.8,VALID,0,VALID,91.9814,VALID,0,VALID,23.4311,VALID,43,VALID,0,
2009-08-23, 02:27:04,VALID,1002.78,VALID,0,VALID,91.9967,VALID,0,VALID,23.4116,VALID,43,VALID,0,
2009-08-23, 02:28:04,VALID,1002.77,VALID,0,VALID,92.0653,VALID,0,VALID,23.3904,VALID,43,VALID,0.263672,
2009-08-23, 02:29:04,VALID,1002.75,VALID,0,VALID,92.0653,VALID,0,VALID,23.3709,VALID,43,VALID,0.159375,
2009-08-23, 02:30:04,VALID,1002.75,VALID,0,VALID,92.2179,VALID,0,VALID,23.3709,VALID,43,VALID,0.279687,
2009-08-23, 02:31:04,VALID,1002.75,VALID,0,VALID,92.3629,VALID,0,VALID,23.3709,VALID,43,VALID,0.396484,
2009-08-23, 02:32:04,VALID,1002.77,VALID,0,VALID,92.4773,VALID,0,VALID,23.3727,VALID,43,VALID,0.209375,
2009-08-23, 02:33:04,VALID,1002.76,VALID,0,VALID,92.5154,VALID,0,VALID,23.3514,VALID,43,VALID,0.124609,
2009-08-23, 02:34:04,VALID,1002.74,VALID,0,VALID,92.607,VALID,0,VALID,23.3514,VALID,43,VALID,0.103516,
2009-08-23, 02:35:04,VALID,1002.75,VALID,0,VALID,92.6375,VALID,0,VALID,23.3727,VALID,43,VALID,0.00195313,
2009-08-23, 02:36:04,VALID,1002.72,VALID,0,VALID,92.6375,VALID,0,VALID,23.332,VALID,43,VALID,0,
2009-08-23, 02:37:04,VALID,1002.72,VALID,0,VALID,92.546,VALID,0,VALID,23.3337,VALID,43,VALID,0.276953,
2009-08-23, 02:38:04,VALID,1002.71,VALID,0,VALID,92.5307,VALID,0,VALID,23.3532,VALID,43,VALID,0.285937,
2009-08-23, 02:39:04,VALID,1002.69,VALID,0,VALID,92.546,VALID,0,VALID,23.3337,VALID,43,VALID,0.366016,
2009-08-23, 02:40:04,VALID,1002.7,VALID,0,VALID,92.4849,VALID,0,VALID,23.3143,VALID,55,VALID,0.210938,
2009-08-23, 02:41:04,VALID,1002.71,VALID,0,VALID,92.5154,VALID,0,VALID,23.2736,VALID,55,VALID,0.148047,
2009-08-23, 02:42:04,VALID,1002.73,VALID,0,VALID,92.4773,VALID,0,VALID,23.2736,VALID,55,VALID,0.00351562,
2009-08-23, 02:43:04,VALID,1002.73,VALID,0,VALID,92.5383,VALID,0,VALID,23.2736,VALID,55,VALID,0.0140625,
2009-08-23, 02:44:04,VALID,1002.74,VALID,0,VALID,92.6222,VALID,0,VALID,23.2736,VALID,56,VALID,0.237109,
2009-08-23, 02:45:04,VALID,1002.75,VALID,0,VALID,92.7824,VALID,0,VALID,23.2736,VALID,83,VALID,0.430078,
2009-08-23, 02:46:04,VALID,1002.75,VALID,0,VALID,92.9121,VALID,0,VALID,23.2931,VALID,83,VALID,0.475,
2009-08-23, 02:47:04,VALID,1002.81,VALID,0,VALID,93.0189,VALID,0,VALID,23.3143,VALID,84,VALID,0.478516,
2009-08-23, 02:48:04,VALID,1002.81,VALID,0,VALID,93.0647,VALID,0,VALID,23.3143,VALID,85,VALID,0.458984,
2009-08-23, 02:49:04,VALID,1002.86,VALID,0,VALID,93.1334,VALID,0,VALID,23.2948,VALID,85,VALID,0.389062,
2009-08-23, 02:50:04,VALID,1002.85,VALID,0,VALID,93.0647,VALID,0,VALID,23.2736,VALID,85,VALID,0.486328,
2009-08-23, 02:51:04,VALID,1002.89,VALID,0,VALID,92.9961,VALID,0,VALID,23.2541,VALID,85,VALID,0.592969,
2009-08-23, 02:52:04,VALID,1002.91,VALID,0,VALID,92.9121,VALID,0,VALID,23.2541,VALID,85,VALID,0.574609,
2009-08-23, 02:53:04,VALID,1002.9,VALID,0,VALID,92.9045,VALID,0,VALID,23.2559,VALID,85,VALID,0.375781,
2009-08-23, 02:54:04,VALID,1002.91,VALID,0,VALID,92.9045,VALID,0,VALID,23.2559,VALID,85,VALID,0.415625,
2009-08-23, 02:55:04,VALID,1002.93,VALID,0,VALID,92.9045,VALID,0,VALID,23.2347,VALID,85,VALID,0.360938,
2009-08-23, 02:56:04,VALID,1002.94,VALID,0,VALID,92.9426,VALID,0,VALID,23.2347,VALID,85,VALID,0.373828,
2009-08-23, 02:57:04,VALID,1002.93,VALID,0,VALID,92.9961,VALID,0,VALID,23.2559,VALID,85,VALID,0.18125,
2009-08-23, 02:58:04,VALID,1002.94,VALID,0,VALID,93.08,VALID,0,VALID,23.2347,VALID,85,VALID,0.231641,
2009-08-23, 02:59:04,VALID,1002.98,VALID,0,VALID,93.1334,VALID,0.100563,VALID,23.2152,VALID,85,VALID,0.41875,
2009-08-23, 03:00:04,VALID,1003,VALID,0,VALID,93.1181,VALID,0,VALID,23.2347,VALID,85,VALID,0.383594,
2009-08-23, 03:01:04,VALID,1002.97,VALID,0,VALID,93.1181,VALID,0.100563,VALID,23.2347,VALID,85,VALID,0.309766,
2009-08-23, 03:02:04,VALID,1002.99,VALID,0,VALID,93.0876,VALID,0,VALID,23.2347,VALID,81,VALID,0.572656,
2009-08-23, 03:03:04,VALID,1003,VALID,0,VALID,93.0723,VALID,0,VALID,23.2347,VALID,81,VALID,0.688672,
2009-08-23, 03:04:04,VALID,1003,VALID,0,VALID,92.9808,VALID,0.100563,VALID,23.2347,VALID,81,VALID,0.683203,
2009-08-23, 03:05:04,VALID,1003,VALID,0,VALID,92.9198,VALID,0.100563,VALID,23.2347,VALID,81,VALID,0.302344,
2009-08-23, 03:06:04,VALID,1002.99,VALID,0,VALID,92.8969,VALID,0,VALID,23.2347,VALID,81,VALID,0.444531,
2009-08-23, 03:07:04,VALID,1002.99,VALID,0,VALID,92.874,VALID,0,VALID,23.2541,VALID,81,VALID,0.296484,
2009-08-23, 03:08:04,VALID,1002.98,VALID,0,VALID,92.8664,VALID,0,VALID,23.2736,VALID,81,VALID,0.0855469,
2009-08-23, 03:09:04,VALID,1002.95,VALID,0,VALID,92.8587,VALID,0,VALID,23.2541,VALID,81,VALID,0.00625,
2009-08-23, 03:10:04,VALID,1002.97,VALID,0,VALID,92.7519,VALID,0,VALID,23.2736,VALID,81,VALID,0.232031,
2009-08-23, 03:11:04,VALID,1002.97,VALID,0,VALID,92.668,VALID,0,VALID,23.2718,VALID,81,VALID,0.414844,
2009-08-23, 03:12:04,VALID,1003.01,VALID,0,VALID,92.5688,VALID,0,VALID,23.2736,VALID,69,VALID,0.552734,
2009-08-23, 03:13:04,VALID,1003.05,VALID,0,VALID,92.4925,VALID,0,VALID,23.2931,VALID,69,VALID,0.458203,
2009-08-23, 03:14:04,VALID,1003.02,VALID,0,VALID,92.462,VALID,0,VALID,23.2931,VALID,74,VALID,0.461719,
2009-08-23, 03:15:04,VALID,1003.06,VALID,0,VALID,92.3934,VALID,0,VALID,23.2931,VALID,92,VALID,1.00469,
2009-08-23, 03:16:04,VALID,1003.08,VALID,0,VALID,92.2561,VALID,0,VALID,23.2931,VALID,92,VALID,0.599219,
2009-08-23, 03:17:04,VALID,1003.08,VALID,0,VALID,92.1721,VALID,0,VALID,23.3532,VALID,92,VALID,0.585938,
2009-08-23, 03:18:04,VALID,1003.08,VALID,0,VALID,92.0501,VALID,0,VALID,23.332,VALID,94,VALID,0.755469,
2009-08-23, 03:19:04,VALID,1003.09,VALID,0,VALID,91.8899,VALID,0,VALID,23.3727,VALID,116,VALID,0.774219,
2009-08-23, 03:20:04,VALID,1003.09,VALID,0,VALID,91.7831,VALID,0,VALID,23.3709,VALID,119,VALID,0.605469,
2009-08-23, 03:21:04,VALID,1003.1,VALID,0,VALID,91.6763,VALID,0,VALID,23.4116,VALID,119,VALID,0.358984,
2009-08-23, 03:22:04,VALID,1003.09,VALID,0,VALID,91.6229,VALID,0,VALID,23.4116,VALID,101,VALID,0.402344,
2009-08-23, 03:23:04,VALID,1003.1,VALID,0,VALID,91.5084,VALID,0,VALID,23.4098,VALID,97,VALID,0.608984,
2009-08-23, 03:24:04,VALID,1003.08,VALID,0,VALID,91.2796,VALID,0,VALID,23.4098,VALID,98,VALID,0.732813,
2009-08-23, 03:25:04,VALID,1003.08,VALID,0,VALID,91.127,VALID,0,VALID,23.4487,VALID,98,VALID,0.378125,
2009-08-23, 03:26:04,VALID,1003.09,VALID,0,VALID,90.982,VALID,0,VALID,23.4487,VALID,105,VALID,0.585156,
2009-08-23, 03:27:04,VALID,1003.08,VALID,0,VALID,90.9286,VALID,0,VALID,23.47,VALID,99,VALID,0.489453,
2009-08-23, 03:28:04,VALID,1003.09,VALID,0,VALID,90.8447,VALID,0,VALID,23.4682,VALID,97,VALID,0.198437,
2009-08-23, 03:29:04,VALID,1003.1,VALID,0,VALID,90.8447,VALID,0,VALID,23.4682,VALID,97,VALID,0.251953,
2009-08-23, 03:30:04,VALID,1003.1,VALID,0,VALID,90.8447,VALID,0,VALID,23.5089,VALID,97,VALID,0,
2009-08-23, 03:31:04,VALID,1003.13,VALID,0,VALID,90.8523,VALID,0,VALID,23.4894,VALID,97,VALID,0.123047,
2009-08-23, 03:32:04,VALID,1003.11,VALID,0,VALID,90.9668,VALID,0,VALID,23.4877,VALID,97,VALID,0.148828,
2009-08-23, 03:33:04,VALID,1003.11,VALID,0,VALID,91.0049,VALID,0,VALID,23.4682,VALID,79,VALID,0.427734,
2009-08-23, 03:34:04,VALID,1003.14,VALID,0,VALID,91.0888,VALID,0,VALID,23.4682,VALID,78,VALID,0.277734,
2009-08-23, 03:35:04,VALID,1003.16,VALID,0,VALID,91.188,VALID,0,VALID,23.4487,VALID,78,VALID,0.182031,
2009-08-23, 03:36:04,VALID,1003.18,VALID,0,VALID,91.2796,VALID,0.100563,VALID,23.408,VALID,78,VALID,0.065625,
2009-08-23, 03:37:04,VALID,1003.17,VALID,0,VALID,91.4169,VALID,0,VALID,23.4098,VALID,78,VALID,0.0640625,
2009-08-23, 03:38:04,VALID,1003.16,VALID,0,VALID,91.4092,VALID,0.100563,VALID,23.4098,VALID,78,VALID,0.299219,
2009-08-23, 03:39:04,VALID,1003.18,VALID,0,VALID,91.4626,VALID,0,VALID,23.3904,VALID,78,VALID,0.532422,
2009-08-23, 03:40:04,VALID,1003.17,VALID,0,VALID,91.3787,VALID,0.100563,VALID,23.3904,VALID,78,VALID,0.119531,
2009-08-23, 03:41:04,VALID,1003.14,VALID,0,VALID,91.3711,VALID,0,VALID,23.4311,VALID,78,VALID,0.543359,
2009-08-23, 03:42:04,VALID,1003.15,VALID,0,VALID,91.3482,VALID,0,VALID,23.4311,VALID,78,VALID,0.226563,
2009-08-23, 03:43:04,VALID,1003.17,VALID,0,VALID,91.3177,VALID,0,VALID,23.4311,VALID,78,VALID,0.34375,
2009-08-23, 03:44:04,VALID,1003.18,VALID,0,VALID,91.2262,VALID,0,VALID,23.4293,VALID,78,VALID,0.360938,
2009-08-23, 03:45:04,VALID,1003.2,VALID,0,VALID,91.2185,VALID,0,VALID,23.4894,VALID,78,VALID,0.15,